Total_Precipitation_Accumulation
1.51 1.67 1.62 1.57 1.61 1.67 1.71 1.72 1.70 1.54 1.23 0.86 0.73 0.70 0.76 0.80 1.03 0.95 0.83 0.80 0.69 0.58 0.47 0.39 0.36 0.38 0.50 0.64 0.80 0.92 1.01 1.06 1.01 0.92 0.87 0.84 0.88 0.94
1.34 1.49 1.60 1.63 1.70 1.70 1.74 1.76 1.69 1.59 1.43 1.07 0.83 0.70 0.79 0.76 0.89 0.77 0.86 1.01 0.78 0.62 0.53 0.46 0.41 0.39 0.39 0.45 0.49 0.50 0.51 0.53 0.57 0.63 0.65 0.66 0.70 0.74
1.20 1.22 1.39 1.54 1.66 1.71 1.72 1.72 1.74 1.66 1.44 1.25 0.99 0.81 0.88 0.88 0.89 0.80 0.85 0.91 0.80 0.73 0.63 0.54 0.48 0.46 0.41 0.40 0.40 0.36 0.36 0.37 0.39 0.44 0.49 0.50 0.51 0.53
1.04 1.12 1.22 1.26 1.36 1.50 1.62 1.62 1.69 1.71 1.58 1.47 1.21 1.00 0.96 0.96 1.05 1.08 1.05 1.00 0.96 1.02 0.96 0.78 0.65 0.58 0.50 0.43 0.39 0.36 0.32 0.32 0.31 0.33 0.38 0.48 0.56 0.56
0.90 0.96 1.01 1.11 1.21 1.25 1.35 1.46 1.54 1.58 1.62 1.54 1.44 1.31 1.16 1.08 1.09 1.06 1.15 1.29 1.25 1.22 1.26 1.08 0.87 0.73 0.64 0.56 0.50 0.43 0.37 0.36 0.33 0.32 0.32 0.36 0.43 0.51
0.81 0.89 0.95 1.00 1.08 1.15 1.19 1.31 1.44 1.52 1.53 1.48 1.44 1.37 1.31 1.28 1.25 1.19 1.24 1.37 1.45 1.36 1.33 1.25 1.16 1.04 0.89 0.75 0.64 0.56 0.50 0.45 0.44 0.41 0.38 0.37 0.38 0.41
0.76 0.80 0.84 0.81 0.85 0.92 0.92 1.09 1.25 1.41 1.47 1.50 1.43 1.33 1.27 1.27 1.25 1.26 1.30 1.45 1.52 1.55 1.54 1.42 1.30 1.13 0.99 0.88 0.75 0.67 0.63 0.56 0.51 0.50 0.49 0.46 0.46 0.48
0.68 0.72 0.79 0.82 0.78 0.74 0.73 0.81 0.94 1.05 1.21 1.34 1.38 1.31 1.23 1.21 1.29 1.39 1.40 1.46 1.57 1.50 1.42 1.51 1.45 1.33 1.14 0.94 0.91 0.87 0.77 0.68 0.61 0.56 0.54 0.51 0.48 0.48
0.53 0.66 0.78 0.84 0.87 0.89 0.77 0.76 0.77 0.81 0.89 1.05 1.20 1.21 1.19 1.20 1.24 1.32 1.40 1.42 1.35 1.40 1.35 1.45 1.45 1.32 1.16 1.08 1.11 0.98 0.90 0.82 0.76 0.69 0.63 0.59 0.56 0.54
0.47 0.57 0.72 0.84 0.87 0.89 0.84 0.90 0.88 0.78 0.75 0.80 0.99 1.08 1.09 1.20 1.31 1.41 1.53 1.51 1.46 1.45 1.36 1.38 1.35 1.21 1.10 1.08 1.15 1.02 0.93 0.86 0.81 0.79 0.76 0.72 0.70 0.68
0.44 0.52 0.67 0.76 0.86 0.87 0.84 0.94 0.95 0.78 0.70 0.78 0.81 0.88 0.98 1.10 1.28 1.42 1.50 1.50 1.49 1.47 1.31 1.19 1.16 1.19 1.18 1.10 1.07 1.04 0.94 0.86 0.78 0.74 0.72 0.70 0.70 0.77
0.44 0.49 0.69 0.74 0.77 0.74 0.76 0.96 1.05 0.93 0.69 0.67 0.73 0.84 0.92 1.06 1.29 1.43 1.64 1.63 1.43 1.40 1.29 1.16 1.17 1.24 1.35 1.24 1.06 0.95 0.89 0.90 0.88 0.82 0.79 0.78 0.83 0.81
0.32 0.37 0.40 0.52 0.55 0.59 0.70 0.81 0.91 0.82 0.74 0.82 0.91 0.94 1.01 1.07 1.16 1.28 1.50 1.65 1.56 1.35 1.24 1.25 1.25 1.23 1.19 1.13 1.07 0.97 0.86 0.84 0.84 0.83 0.86 0.89 0.92 0.89
0.22 0.27 0.31 0.40 0.44 0.50 0.57 0.62 0.66 0.72 0.77 0.90 0.93 0.85 0.90 0.96 0.97 1.06 1.23 1.36 1.25 1.17 1.09 1.04 1.06 1.01 0.96 0.88 0.86 0.92 0.92 0.86 0.84 0.83 0.82 0.95 1.00 1.01
0.15 0.22 0.26 0.34 0.34 0.40 0.48 0.49 0.58 0.79 0.91 0.86 0.83 0.79 0.78 0.82 0.81 0.92 1.11 1.26 1.22 1.03 0.93 0.86 0.85 0.86 0.84 0.78 0.72 0.70 0.76 0.79 0.75 0.76 0.80 0.80 0.80 0.88
0.17 0.20 0.24 0.31 0.34 0.37 0.44 0.51 0.62 0.78 0.92 0.79 0.66 0.67 0.68 0.77 0.84 0.82 0.91 1.01 1.15 1.13 1.00 0.91 0.86 0.86 0.84 0.74 0.70 0.67 0.62 0.64 0.68 0.74 0.77 0.76 0.73 0.73
0.20 0.29 0.39 0.50 0.50 0.51 0.57 0.61 0.64 0.65 0.70 0.65 0.63 0.68 0.71 0.73 0.79 0.81 0.82 0.83 0.85 0.88 0.92 0.90 0.87 0.88 0.90 0.84 0.77 0.68 0.65 0.60 0.62 0.73 0.81 0.80 0.75 0.74
0.29 0.34 0.46 0.60 0.64 0.67 0.68 0.69 0.70 0.65 0.66 0.62 0.63 0.65 0.65 0.65 0.68 0.75 0.82 0.87 0.81 0.73 0.70 0.69 0.73 0.81 0.87 0.90 0.80 0.70 0.67 0.65 0.64 0.67 0.69 0.70 0.66 0.67
0.30 0.35 0.53 0.59 0.57 0.59 0.65 0.69 0.63 0.53 0.54 0.54 0.50 0.51 0.51 0.50 0.53 0.59 0.67 0.74 0.75 0.70 0.66 0.64 0.65 0.69 0.72 0.69 0.66 0.57 0.58 0.62 0.66 0.66 0.62 0.58 0.52 0.50
0.32 0.46 0.60 0.63 0.58 0.52 0.49 0.46 0.41 0.38 0.39 0.40 0.41 0.42 0.45 0.46 0.47 0.49 0.52 0.55 0.60 0.63 0.68 0.69 0.69 0.67 0.66 0.64 0.60 0.54 0.49 0.52 0.56 0.59 0.59 0.58 0.57 0.62
0.28 0.38 0.47 0.54 0.49 0.37 0.31 0.30 0.29 0.30 0.32 0.35 0.38 0.42 0.43 0.45 0.47 0.49 0.50 0.52 0.55 0.57 0.60 0.61 0.64 0.73 0.73 0.73 0.67 0.54 0.50 0.53 0.55 0.52 0.52 0.55 0.56 0.56
0.18 0.22 0.25 0.27 0.26 0.24 0.25 0.26 0.27 0.29 0.31 0.33 0.37 0.40 0.45 0.49 0.49 0.48 0.50 0.50 0.51 0.51 0.52 0.54 0.60 0.69 0.72 0.72 0.64 0.54 0.47 0.48 0.54 0.59 0.57 0.55 0.51 0.45
0.17 0.19 0.21 0.23 0.24 0.24 0.25 0.26 0.27 0.29 0.31 0.33 0.37 0.41 0.44 0.46 0.50 0.50 0.49 0.50 0.49 0.49 0.50 0.52 0.54 0.62 0.67 0.67 0.64 0.57 0.51 0.47 0.47 0.47 0.46 0.51 0.49 0.44